This demonstration page uses our WeatherBlox Daily Observations layout. Learn more.

41.55636, -103.73856

Hourly Observations for November 17, 2019

Temp ( °F °C ) Dew Point ( °F °C ) Humidity (%) Winds ( mph kmh ) Pressure ( in mb ) Visibility ( mi km ) Precip ( " mm )
12:58 am 00:58 Mostly Cloudy 37 2.8 35 1.8 93 93 WNW 14 22 30.23 1024 10 16.0934 0 0
1:58 am 01:58 Clear 34 1.2 33 0.5 95 95 WNW 10 17 30.25 1025 10 16.0934 0 0
2:58 am 02:58 Mostly Clear 33 0.6 32 -0.2 94 94 WNW 12 19 30.24 1024 10 16.0934 0 0
3:58 am 03:58 Mostly Cloudy 34 0.9 31 -0.5 90 90 NW 10 17 30.23 1024 10 16.0934 0 0
4:58 am 04:58 Clear 32 -0.2 29 -1.4 92 92 NW 10 17 30.25 1024 10 16.0934 0 0
5:58 am 05:58 Clear 32 -0.1 29 -1.8 88 88 WNW 10 17 30.25 1024 10 16.0934 0 0
6:58 am 06:58 Clear 31 -0.5 28 -2.4 87 87 WNW 10 17 30.24 1024 10 16.0934 0 0
7:58 am 07:58 Clear 28 -2.1 25 -3.7 89 89 WSW 7 11 30.26 1025 10 16.0934 0 0
8:58 am 08:58 Clear 29 -1.8 25 -3.8 86 86 W 3 6 30.24 1024 10 16.0934 0 0
9:58 am 09:58 Clear 27 -2.8 24 -4.6 88 88 NW 3 6 30.25 1025 10 16.0934 0 0
10:58 am 10:58 Clear 26 -3.4 23 -5.1 88 88 Calm 30.26 1025 10 16.0934 0 0
11:58 am 11:58 Clear 24 -4.7 24 -4.7 100 100 SW 7 11 30.23 1024 10 16.0934 0 0
12:58 pm 12:58 Clear 26 -3.2 22 -5.8 82 82 W 3 6 30.23 1024 10 16.0934 0 0
1:58 pm 13:58 Sunny 25 -4 21 -6.2 85 85 WSW 8 13 30.24 1024 10 16.0934 0 0
2:58 pm 14:58 Sunny 29 -1.6 26 -3.6 86 86 W 8 13 30.23 1024 10 16.0934 0 0
3:56 pm 15:56 Sunny 38 3.6 29 -1.6 69 69 W 12 19 30.17 1022 10 16.0934 0 0
4:56 pm 16:56 Sunny 43 6.1 28 -2.2 56 56 WNW 15 24 30.16 1021 10 16.0934 0 0
5:57 pm 17:57 Sunny 48 8.9 28 -2.4 45 45 WNW 15 24 30.12 1020 10 16.0934 0 0
6:58 pm 18:58 Sunny 51 10.5 24 -4.2 36 36 NW 21 33 30.06 1018 10 16.0934 0 0
7:58 pm 19:58 Sunny 52 11.2 23 -4.9 32 32 WNW 21 33 30.05 1018 10 16.0934 0 0
8:58 pm 20:58 Sunny 54 12.4 23 -4.9 30 30 WNW 18 30 30.01 1016 10 16.0934 0 0
9:58 pm 21:58 Mostly Sunny 55 12.7 23 -4.8 29 29 NW 18 30 30 1016 10 16.0934 0 0
10:58 pm 22:58 Cloudy 53 11.8 25 -3.8 34 34 WNW 9 15 30.01 1016 10 16.0934 0 0
11:58 pm 23:58 Mostly Cloudy 50 10.2 26 -3.3 39 39 WNW 10 17 30.02 1017 10 16.0934 0 0

Powered by AerisWeather